sat.trackr.live / text

‹ back to catalog

STARLINK-32354

NORAD 61932 · 2024-207W

PAYLOAD ACTIVE UNKNOWN

§ Identity

Operator
Country
US
Launch date
2024-11-11
Launch site
AFETR
Launch vehicle
Mass (kg)
RCS (m²)

Purposes: comms

External: N2YO · Heavens-Above · Gunter

§ Orbital elements

Epoch: 2026-05-25T05:25:45.056352Z

Period
94.27 min
Inclination
42.9995°
Eccentricity
0.0001255
Mean motion
15.27588113 rev/d
Perigee alt
482.2 km
Apogee alt
483.9 km
Semi-major
6,861.2 km
B*
5.3418e-4
RAAN
213.2788°
Arg perigee
273.5553°
Mean anomaly
86.5155°
Rev number
8,687

§ Raw data

STARLINK-323541 61932U 24207W   26145.22621593  .00014470  00000+0  53418-3 0  99932 61932  42.9995 213.2788 0001255 273.5553  86.5155 15.27588113 86875

JSON: /api/v1/satellites/61932 · /tle

For live sub-satellite position, see the globe view (requires WebGL).

§ Visibility from observer

Set your observer location to see the next 7 days of passes ≥ 10°. The values pass through the URL so the page stays shareable.

No JS? Fill the form by hand. The geolocation button needs JavaScript.